Home > Time Zones > World Clock > Weather > Japan > Tokyo > Past weeks

Flag for Japan Weather past 2 weeks in Tokyo, Japan

Now
82 °F

Warm.


Feels Like: 91 °F
Forecast: 79 / 93 °F
Wind: 2 mph from West

Location: Tokyo

Current Time: Jul 26, 2014 at 5:58:03 AM

Latest Report: Jul 26, 2014 at 5:00 AM


Visibility: N/A

Pressure: 29.89 "Hg

Humidity: 85%

Dew point: 77 °F

Location of TokyoLocation

Historic Weather in Tokyo — Graph

°F

Tokyo temperature yesterday

Maximum temperature yesterday: 95 °F (at 2:00 PM)
Minimum temperature yesterday: 80 °F (at 2:00 AM)
Average temperature yesterday: 87 °F

Past Weeks' High & Low Weather Summary

 TemperatureHumidityPressure
High95 °F (Jul 25, 2:00 PM)96% (Jul 11, 4:00 AM)29.98 "Hg (Jul 11, 4:00 AM)
Low71 °F (Jul 20, 3:00 AM)48% (Jul 25, 2:00 PM)29.23 "Hg (Jul 11, 4:00 AM)
Average81 °F74%29.78 "Hg
* Reported Jul 11 4:00 AM — Jul 26 4:00 AM, Tokyo, Weather by CustomWeather, © 2014

Note: Actual official high and low records may vary slightly from our data, if they occured in-between our weather recording intervals... More about our weather records

Advertising

Tokyo weather history for previous 24 hours

 ConditionsComfort  
Time TempWeatherWind HumidityBarometerVisibility
4:00 AM
Jul 26
83 °FWarm.2 mph83%29.90 "HgN/A
3:00 AM84 °FFog.1 mph81%29.89 "Hg5 mi
2:00 AM83 °FWarm.3 mph79%29.90 "HgN/A
1:00 AM85 °FWarm.1 mph75%29.90 "HgN/A
12:00 AM85 °FWarm.5 mph72%29.92 "HgN/A
11:00 PM
Jul 25
85 °FWarm.5 mph71%29.92 "HgN/A
10:00 PM87 °FWarm.5 mph68%29.92 "HgN/A
9:00 PM88 °FClear.3 mph66%29.92 "Hg6 mi
8:00 PM88 °FWarm.7 mph65%29.90 "HgN/A
7:00 PM89 °FHot.8 mph61%29.88 "HgN/A
6:00 PM89 °FClear.9 mph58%29.87 "Hg9 mi
5:00 PM90 °FHot.10 mph55%29.85 "HgN/A
4:00 PM92 °FHot.14 mph53%29.84 "HgN/A
3:00 PM93 °FPassing clouds.10 mph52%29.83 "Hg9 mi
2:00 PM95 °FExtremely hot.7 mph48%29.83 "HgN/A
1:00 PM94 °FExtremely hot.9 mph50%29.83 "HgN/A
12:00 PM92 °FScattered clouds.6 mph54%29.84 "Hg6 mi
11:00 AM93 °FHot.6 mph56%29.84 "HgN/A
10:00 AM90 °FHot.2 mph59%29.84 "HgN/A
9:00 AM87 °FPassing clouds.5 mph65%29.84 "Hg6 mi
8:00 AM85 °FWarm.6 mph69%29.84 "HgN/A
7:00 AM83 °FWarm.5 mph75%29.83 "HgN/A
6:00 AM81 °FPartly sunny.3 mph80%29.81 "Hg6 mi
5:00 AM81 °FWarm.3 mph80%29.80 "HgN/A
Weather by CustomWeather, © 2014

See weather overviewHow to use our weather pages